This demonstration page uses our WeatherBlox Daily Observations layout. Learn more.

Hourly Observations for March 1, 2018

Temp ( °F °C ) Dew Point ( °F °C ) Humidity (%) Winds ( mph kmh ) Pressure ( in mb ) Visibility ( mi km ) Precip ( " mm )
12:15 am 00:15 Clear 27 -2.6 21 -6.2 77 77 N 8 13 30.18 1022 10 16.0934 0 0
12:35 am 00:35 Clear 27 -2.8 21 -6.2 78 78 NNW 8 13 30.18 1022 10 16.0934 0 0
12:55 am 00:55 Clear 26 -3.5 21 -6.2 82 82 NNW 8 13 30.24 1024 10 16.0934 0 0
1:15 am 01:15 Clear 26 -3.3 21 -6.1 81 81 NNW 8 13 30.24 1024 10 16.0934 0 0
1:35 am 01:35 Clear 26 -3.5 21 -6.1 82 82 NNW 8 13 30.24 1024 10 16.0934 0 0
1:55 am 01:55 Clear 25 -4 20 -6.5 83 83 NNW 8 13 30.24 1024 10 16.0934 0 0
2:15 am 02:15 Clear 25 -3.7 21 -6 84 84 NNW 9 15 30.24 1024 10 16.0934 0 0
2:35 am 02:35 Clear 25 -3.7 21 -6.1 84 84 NNW 12 19 30.24 1024 10 16.0934 0 0
2:55 am 02:55 Clear 25 -4 21 -6.2 85 85 NNW 9 15 30.24 1024 10 16.0934 0 0
3:15 am 03:15 Clear 25 -4 21 -6.1 86 86 NNW 9 15 30.24 1024 10 16.0934 0 0
3:35 am 03:35 Clear 24 -4.5 20 -6.4 87 87 NW 8 13 30.24 1024 10 16.0934 0 0
3:55 am 03:55 Clear 24 -4.6 21 -6.3 88 88 NW 6 9 30.24 1024 10 16.0934 0 0
4:15 am 04:15 Clear 23 -5 20 -6.5 89 89 NNW 8 13 30.24 1024 10 16.0934 0 0
4:35 am 04:35 Clear 24 -4.7 20 -6.5 87 87 NNW 8 13 30.27 1025 10 16.0934 0 0
4:55 am 04:55 Clear 24 -4.2 20 -6.4 85 85 NW 8 13 30.27 1025 10 16.0934 0 0
5:15 am 05:15 Clear 25 -4.1 20 -6.7 82 82 NW 8 13 30.27 1025 10 16.0934 0 0
5:35 am 05:35 Clear 24 -4.5 19 -7 83 83 NW 9 15 30.27 1025 10 16.0934 0 0
5:55 am 05:55 Clear 23 -4.8 19 -7.1 84 84 NW 8 13 30.27 1025 10 16.0934 0 0
6:15 am 06:15 Clear 22 -5.6 19 -7.5 87 87 WNW 7 11 30.3 1026 10 16.0934 0 0
6:35 am 06:35 Clear 22 -5.5 18 -7.6 85 85 WNW 6 9 30.3 1026 10 16.0934 0 0
6:55 am 06:55 Clear 22 -5.8 18 -7.9 85 85 W 8 13 30.33 1027 10 16.0934 0 0
7:15 am 07:15 Sunny 22 -5.4 18 -8 82 82 WNW 10 17 30.33 1027 10 16.0934 0 0
7:35 am 07:35 Sunny 22 -5.4 17 -8.2 81 81 WNW 6 9 30.36 1028 10 16.0934 0 0
7:55 am 07:55 Sunny 23 -4.8 19 -7.5 82 82 NW 7 11 30.36 1028 10 16.0934 0 0
8:15 am 08:15 Sunny 27 -2.8 20 -6.5 76 76 NW 6 9 30.33 1027 10 16.0934 0 0
8:35 am 08:35 Sunny 30 -0.9 21 -5.9 69 69 NW 6 9 30.33 1027 10 16.0934 0 0
8:55 am 08:55 Sunny 33 0.3 23 -5.2 67 67 NNW 5 7 30.33 1027 10 16.0934 0 0
9:15 am 09:15 Sunny 35 1.5 22 -5.6 60 60 NNW 5 7 30.33 1027 10 16.0934 0 0
9:35 am 09:35 Sunny 37 2.7 21 -6.1 53 53 N 5 7 30.3 1026 10 16.0934 0 0
9:55 am 09:55 Sunny 39 4 22 -5.5 50 50 N 6 9 30.3 1026 10 16.0934 0 0
10:15 am 10:15 Sunny 40 4.5 18 -7.6 41 41 N 3 6 30.3 1026 10 16.0934 0 0
10:35 am 10:35 Sunny 41 5.2 16 -8.7 36 36 NNW 3 6 30.27 1025 10 16.0934 0 0
10:55 am 10:55 Sunny 42 5.6 16 -9 34 34 Calm 30.27 1025 10 16.0934 0 0
11:15 am 11:15 Sunny 43 6.2 15 -9.2 33 33 NNW 3 6 30.27 1025 10 16.0934 0 0
11:35 am 11:35 Sunny 44 6.5 16 -9 32 32 Calm 30.27 1025 10 16.0934 0 0
11:55 am 11:55 Sunny 45 7 16 -8.9 32 32 SW 5 7 30.27 1025 10 16.0934 0 0
12:15 pm 12:15 Sunny 46 7.9 15 -9.5 28 28 Calm 30.27 1025 10 16.0934 0 0
12:35 pm 12:35 Sunny 46 7.8 14 -10.1 27 27 SW 3 6 30.27 1025 10 16.0934 0 0
12:55 pm 12:55 Sunny 47 8.5 14 -10.1 26 26 SSE 5 7 30.24 1024 10 16.0934 0 0
1:15 pm 13:15 Sunny 47 8.6 17 -8.4 29 29 WSW 8 13 30.24 1024 10 16.0934 0 0
1:35 pm 13:35 Sunny 48 9.1 18 -8 29 29 SSW 6 9 30.24 1024 10 16.0934 0 0
1:55 pm 13:55 Sunny 48 9 17 -8.5 28 28 Calm 30.21 1023 10 16.0934 0 0
2:15 pm 14:15 Sunny 49 9.2 17 -8.1 29 29 Calm 30.21 1023 10 16.0934 0 0
2:35 pm 14:35 Sunny 49 9.4 17 -8.5 28 28 WSW 7 11 30.21 1023 10 16.0934 0 0
2:55 pm 14:55 Sunny 49 9.4 17 -8.6 27 27 W 3 6 30.21 1023 10 16.0934 0 0
3:15 pm 15:15 Sunny 49 9.6 17 -8.6 27 27 SSE 5 7 30.21 1023 10 16.0934 0 0
3:35 pm 15:35 Sunny 50 9.8 16 -8.9 26 26 SE 3 6 30.21 1023 10 16.0934 0 0
3:55 pm 15:55 Sunny 50 10 16 -9.1 25 25 SSE 6 9 30.18 1022 10 16.0934 0 0
4:15 pm 16:15 Sunny 49 9.5 15 -9.2 26 26 S 5 7 30.21 1023 10 16.0934 0 0
4:35 pm 16:35 Sunny 49 9.6 15 -9.5 25 25 SSE 6 9 30.21 1023 10 16.0934 0 0
4:55 pm 16:55 Sunny 49 9.6 15 -9.3 26 26 SE 6 9 30.18 1022 10 16.0934 0 0
5:15 pm 17:15 Sunny 49 9.6 15 -9.2 26 26 S 8 13 30.21 1023 10 16.0934 0 0
5:35 pm 17:35 Sunny 49 9.3 15 -9.2 26 26 SSE 8 13 30.18 1022 10 16.0934 0 0
5:55 pm 17:55 Sunny 39 4.1 25 -4 56 56 N 22 35 29.97 1015 10 16.0934 0 0
6:15 pm 18:15 Sunny 43 6.2 15 -9.5 32 32 SSE 7 11 30.24 1024 10 16.0934 0 0
6:35 pm 18:35 Clear 41 4.8 14 -10.2 33 33 SSE 8 13 30.24 1024 10 16.0934 0 0
6:55 pm 18:55 Clear 40 4.7 13 -10.5 33 33 SSE 7 11 30.24 1024 10 16.0934 0 0
7:15 pm 19:15 Clear 38 3.1 13 -10.6 36 36 SSE 8 13 30.27 1025 10 16.0934 0 0
7:35 pm 19:35 Clear 35 1.5 13 -10.7 40 40 SSE 6 9 30.27 1025 10 16.0934 0 0
7:55 pm 19:55 Clear 32 -0.1 13 -10.4 46 46 SE 7 11 30.3 1026 10 16.0934 0 0
8:15 pm 20:15 Clear 32 0 13 -10.3 46 46 SSE 6 9 30.33 1027 10 16.0934 0 0
8:35 pm 20:35 Clear 29 -1.6 13 -10.4 52 52 SE 7 11 30.3 1026 10 16.0934 0 0
8:55 pm 20:55 Clear 27 -2.6 14 -10 57 57 SE 9 15 30.36 1028 10 16.0934 0 0
9:15 pm 21:15 Clear 28 -2 14 -10 55 55 SE 9 15 30.36 1028 10 16.0934 0 0
9:35 pm 21:35 Clear 29 -1.5 14 -9.8 54 54 SE 9 15 30.36 1028 10 16.0934 0 0
9:55 pm 21:55 Clear 29 -1.6 15 -9.5 55 55 SE 12 19 30.36 1028 10 16.0934 0 0
10:15 pm 22:15 Clear 29 -1.4 15 -9.2 56 56 SE 10 17 30.33 1027 10 16.0934 0 0
10:35 pm 22:35 Clear 31 -0.5 15 -9.2 52 52 SE 12 19 30.33 1027 10 16.0934 0 0
10:55 pm 22:55 Clear 33 0.5 15 -9.2 49 49 SE 12 19 30.3 1026 10 16.0934 0 0
11:15 pm 23:15 Clear 32 0 16 -9.1 51 51 SE 12 19 30.3 1026 10 16.0934 0 0
11:35 pm 23:35 Clear 32 0.1 16 -9 51 51 SE 12 19 30.3 1026 10 16.0934 0 0
11:55 pm 23:55 Clear 33 0.4 16 -9 50 50 SE 14 22 30.3 1026 10 16.0934 0 0

Powered by AerisWeather